Regional Weather Roundup
Issued by NWS Sterling, VA

Home | Current Version | Previous Version | Text Only | Print | Product List | Glossary On
Versions: 1 2 3 4 5 6 7 8 9 10 11 12 13 14 15 16 17 18 19 20 21 22 23 24 25 26 27 28 29 30 31 32 33 34 35 36 37 38 39 40 41 42 43 44 45 46 47 48 49 50
000
ASUS41 KLWX 011410
RWRLWX

REGIONAL WEATHER ROUNDUP
NATIONAL WEATHER SERVICE BALTIMORE MD/WASHINGTON DC
1000 AM EDT FRI AUG 01 2014

Note: "FAIR" indicates few or no clouds below 12,000 feet
with no significant weather and/or obstructions to visibility.
 TC=TEMPERATURE CELSIUS

 * =Non NWS site. Station does not report precipitation (e.g. rain,
    snow, etc.), thunder, or fog.

DCZ001-MDZ009-015-VAZ040>042-051-053>054-011500-
WASHINGTON METRO
  /KDAA//-FT BELVOIR

CITY           SKY/WX    TMP DP  RH WIND       PRES   REMARKS
WASHINGTON NAT CLOUDY    77  67  71 S8        30.18S
DULLES         CLOUDY    73  66  78 SW8       30.18R
ANDREWS AFB    CLOUDY    75  68  79 SW7       30.18S
QUANTICO       LGT RAIN  74  68  81 SW3       30.19S
COLLEGE PARK*  CLOUDY    77  68  73 S5        30.17S
LEESBURG*      CLOUDY    73  70  88 S3        30.19S
MANASSAS*      MOSUNNY   73  70  88 S7        30.19R
GAITHERSBURG*  CLOUDY    73  66  78 S6        30.22S

$$

MDZ006>007-011-014-011500-
BALTIMORE METRO

CITY           SKY/WX    TMP DP  RH WIND       PRES   REMARKS
BWI AIRPORT    CLOUDY    75  67  76 SW6       30.17S
MD SCIENCE CTR   N/A     77  67  71 MISG      30.17F
MARTIN STATE   CLOUDY    77  70  78 CALM      30.18S
ANNAPOLIS      CLOUDY    77  66  68 W7        30.17S
FORT MEADE*    CLOUDY    73  68  83 S3        30.19S

$$

MDZ012-015-019>023-011500-
MARYLAND EASTERN SHORE

CITY           SKY/WX    TMP DP  RH WIND       PRES   REMARKS
OCEAN CITY     CLOUDY    76  67  73 CALM      30.19S
SALISBURY      CLOUDY    80  66  62 N3        30.18S
BAY BRIDGE AP*   N/A     77  64  65 SW5       30.18R
CAMBRIDGE*     CLOUDY    79  64  61 S3        30.18R
EASTON*        CLOUDY    79  68  69 W6        30.21S

$$

MDZ017>025-011500-
SOUTHERN MARYLAND

CITY           SKY/WX    TMP DP  RH WIND       PRES   REMARKS
PATUXENT RIVER LGT RAIN  75  65  70 SW5       30.18R
ST INIGOES     CLOUDY    75  64  68 W3        30.18R
LEONARDTOWN*   CLOUDY    73  64  73 W3        30.20R

$$

MDZ003>005-011500-
NORTH CENTRAL MARYLAND

CITY           SKY/WX    TMP DP  RH WIND       PRES   REMARKS
FREDERICK*     MOSUNNY   75  72  88 SW6       30.20S HAZE
HAGERSTOWN APT CLOUDY    73  64  73 SE3       30.18S
WESTMINSTER*   CLOUDY    75  72  88 S6        30.19R

$$

MDZ501>502-011500-
WESTERN MARYLAND

CITY           SKY/WX    TMP DP  RH WIND       PRES   REMARKS
OAKLAND*       CLOUDY    64  61  88 SE6       30.24S
CUMBERLAND*    CLOUDY    70  63  78 CALM      30.23S

$$

VAZ025>031-011500-
SHENANDOAH VALLEY

CITY           SKY/WX    TMP DP  RH WIND       PRES   REMARKS
WINCHESTER*    CLOUDY    70  64  83 SW3       30.19R
STAUNTON*      DRIZZLE   67  64  89 CALM      30.24R

$$

WVZ021-048>050-054>055-011500-
EASTERN WEST VIRGINIA PANHANDLE

CITY           SKY/WX    TMP DP  RH WIND       PRES   REMARKS
MARTINSBURG    CLOUDY    71  62  73 CALM      30.18S
PETERSBURG*    CLOUDY    66  57  73 CALM      30.20S

$$

VAZ036>039-050-011500-
CENTRAL FOOTHILLS

CITY           SKY/WX    TMP DP  RH WIND       PRES   REMARKS
CHARLOTTESVILL LGT RAIN  69  66  90 CALM      30.20R
ORANGE*        LGT RAIN  70  66  88 CALM      30.22R

$$

VAZ055>057-011500-
NORTH AND CENTRAL PIEDMONT

CITY           SKY/WX    TMP DP  RH WIND       PRES   REMARKS
FREDERICKSBRG* LGT RAIN  73  71  94 W3        30.18S
STAFFORD*      DRIZZLE   72  72 100 CALM      30.23R

$$

NCZ024-NYZ072-PAZ021-071-VAZ022-071-011500-
OTHER REGIONAL OBSERVATIONS

CITY           SKY/WX    TMP DP  RH WIND       PRES   REMARKS
NEW YORK CITY  MOSUNNY   77  66  68 NW3       30.21F
PHILADELPHIA   PTSUNNY   78  68  71 SW7       30.18S
PITTSBURGH     PTSUNNY   72  62  71 CALM      30.16F
ROANOKE        LGT RAIN  65  64  97 CALM      30.23S FOG
RICHMOND       LGT RAIN  74  66  76 W5        30.19R
RALEIGH        CLOUDY    74  68  81 NE8       30.12S

$$

ANZ530>537-011500-
MARINE OBSERVATIONS

STATION/POSITION TIME  TEMP    WIND        PRES
                       AIR SEA DIR/SP/G
                 (UTC) (F)     (DEG/KT/KT) (MB)
THOMAS PT LIGHT  1400   75 78  230/  7/  8 1022.3R
BALT KEY BRIDGE  1400          230/  4/  5 1021.3F
COVE POINT       1400   74     200/  5/  6 1021.9R
LEWISETTA        1400   74 78  310/  3/  4 1021.8R
SOLOMONS ISLAND  1400      79                N/A
PINEY POINT      1400          270/  3/  3   N/A

$$




USA.gov is the U.S. government's official web portal to all federal, state and local government web resources and services.